Theta_e
314 314 314 320 326 325 324 322 319 320 320 318 317 320 322 321 322 325 321 334 335 335 335 335 334 334 333 330 333 334 332 330 325 320 316 313 312 311 310 309 309 323 315 329 328 323 315 314 315
313 314 317 323 324 323 322 321 321 320 321 319 320 321 323 325 326 329 332 334 335 335 335 334 334 334 331 328 332 335 333 331 327 322 318 314 311 310 309 308 309 318 320 327 328 320 316 313 311
314 316 322 324 324 323 322 320 321 319 319 318 321 320 322 323 326 332 333 333 334 334 334 334 334 334 330 328 333 334 333 332 328 324 320 318 314 312 309 308 307 309 312 322 325 315 315 312 309
318 320 318 323 323 321 321 320 319 320 318 316 320 322 322 322 329 329 328 332 335 334 334 334 334 333 330 329 332 333 334 332 330 327 323 321 319 316 312 309 307 307 309 311 314 313 312 309 308
319 320 321 322 322 319 317 317 318 321 319 319 320 321 323 322 322 323 325 328 336 335 334 334 334 333 330 329 331 332 334 333 331 329 325 323 322 321 318 313 309 307 306 306 307 307 307 307 306
319 319 321 322 321 318 317 316 318 320 317 318 319 321 322 319 321 322 320 326 332 335 334 333 334 333 331 330 331 332 333 333 332 330 327 325 324 323 321 318 315 313 311 309 307 305 304 304 304
320 321 321 321 320 318 319 316 318 319 318 318 319 320 321 319 318 320 322 330 335 335 333 333 334 333 331 331 330 332 333 333 333 331 328 326 325 324 322 320 317 316 316 316 316 316 315 310 305
316 318 318 318 319 320 316 316 315 317 318 316 318 320 321 324 318 321 325 334 336 335 334 334 334 333 332 331 331 331 332 333 333 331 329 327 325 324 323 321 319 318 318 318 317 317 317 316 314
313 319 319 318 317 318 313 317 312 314 315 315 317 317 317 319 318 322 327 332 335 333 333 334 334 334 334 332 331 331 331 332 332 331 329 328 325 324 323 323 322 320 319 319 318 318 317 317 316
315 317 316 314 316 317 315 315 315 315 315 316 316 317 317 318 319 324 331 333 335 334 332 332 332 333 334 332 331 331 331 330 330 331 330 327 326 325 324 323 322 321 320 319 319 318 317 317 316
313 315 312 313 312 313 315 314 314 316 317 317 317 317 316 317 319 329 332 332 333 334 333 333 333 332 332 331 330 329 331 330 330 330 330 328 326 325 324 323 323 322 320 319 319 318 317 316 314
315 312 312 312 312 313 315 314 314 315 318 316 316 315 315 315 318 319 329 332 333 332 329 332 332 331 332 331 331 331 331 331 331 330 330 328 327 327 325 324 323 322 321 320 319 317 316 312 310
315 313 312 312 312 312 312 314 315 314 315 315 315 315 315 315 316 319 328 332 330 327 328 330 332 330 330 330 330 329 331 330 331 330 330 327 327 328 327 326 324 323 322 320 319 317 313 310 310
313 313 314 313 313 313 314 314 313 315 314 314 314 315 314 315 315 323 321 321 322 327 329 330 331 330 330 331 330 329 329 330 331 331 330 329 329 329 329 327 326 324 322 321 319 316 310 308 309
313 315 315 315 313 314 313 316 315 315 314 314 314 313 314 314 314 315 317 320 321 324 329 332 332 331 331 331 330 330 325 328 329 331 330 329 328 329 328 327 326 325 323 321 319 313 308 307 308
315 316 316 314 313 313 314 317 316 314 313 315 315 314 314 314 314 315 316 320 321 324 325 331 333 333 334 333 330 328 326 328 327 328 331 330 328 328 327 327 325 325 324 322 317 309 309 306 306
316 315 316 316 313 314 315 318 316 314 313 315 316 315 315 315 314 314 315 316 319 324 327 328 331 332 332 331 332 329 327 327 328 327 326 329 326 327 326 324 326 325 324 322 313 308 308 306 304
316 316 315 316 314 313 316 316 317 315 313 315 316 316 315 316 317 316 315 314 317 320 324 327 328 328 327 327 329 327 324 325 326 325 331 329 328 328 326 324 325 324 323 318 312 308 306 305 304
313 315 315 315 313 314 316 316 316 316 315 315 315 316 316 316 315 315 315 314 314 316 319 322 324 324 324 324 327 327 323 324 325 324 324 326 325 328 327 326 324 323 321 320 310 308 310 304 303
314 315 315 315 313 313 316 316 316 316 316 316 317 317 317 317 315 314 315 315 314 313 314 318 320 321 320 318 318 320 324 323 323 323 324 322 322 325 326 323 323 323 321 318 311 309 306 305 302
314 315 315 314 314 312 313 316 317 316 314 315 315 315 315 316 314 313 314 314 314 313 313 313 315 316 315 314 312 312 314 321 323 322 323 324 323 322 324 322 322 322 320 319 314 308 308 307 302
314 313 313 314 315 316 314 316 318 318 319 317 316 316 316 314 315 314 313 313 313 312 312 312 312 312 312 311 311 311 311 315 320 318 322 323 323 321 321 322 322 320 319 317 310 308 304 305 303
315 312 313 314 316 315 316 317 318 317 318 319 319 317 314 314 314 313 313 312 312 311 311 311 311 311 311 311 310 311 312 316 316 319 323 320 320 320 321 320 320 318 316 310 305 305 303 303 301
310 313 313 312 315 320 318 318 319 320 320 320 318 314 313 313 314 314 314 313 312 311 310 309 310 310 310 310 310 312 314 318 317 318 319 319 319 320 318 319 318 315 309 302 301 302 302 301 301
313 316 320 322 320 322 315 318 320 319 316 317 316 313 313 314 315 314 314 313 312 311 310 308 308 309 309 309 310 311 313 313 314 316 317 319 318 317 317 318 317 313 310 301 300 301 301 300 299
313 317 321 329 323 321 312 319 320 317 317 314 312 311 312 312 312 312 312 312 311 310 309 308 308 308 309 309 309 308 311 313 314 314 315 315 316 316 315 315 313 305 297 296 296 296 296 293 292
314 315 317 320 310 320 321 321 317 316 316 313 313 312 312 311 312 312 311 311 311 310 309 308 308 307 308 308 308 308 312 312 312 312 313 314 314 313 312 311 301 297 294 293 294 293 292 291 291
314 315 317 318 327 326 322 321 322 319 317 315 314 313 311 312 312 312 312 312 312 311 310 309 308 307 307 307 307 307 309 310 310 310 311 312 312 311 309 302 298 294 291 292 291 290 291 291 291
314 315 315 317 319 325 325 323 318 320 316 315 313 311 311 312 312 312 312 313 313 312 311 309 308 308 308 307 307 307 307 308 309 309 310 311 310 308 307 303 299 290 291 290 289 289 290 290 290
314 317 316 321 320 317 318 323 313 314 315 314 312 311 311 311 312 314 314 314 314 313 312 311 309 308 307 307 307 306 306 307 308 308 309 309 306 302 302 299 292 293 288 289 289 289 289 288 289
Wind_Speed
2 2 1 1 3 2 1 3 1 4 4 2 5 3 3 2 2 3 10 20 19 18 17 17 15 13 12 9 8 8 7 7 9 10 11 12 12 13 12 12 12 15 15 18 14 15 16 17 16
4 4 2 1 3 1 3 2 5 4 2 7 5 3 3 1 1 4 15 19 20 19 17 17 15 14 11 9 8 8 8 7 8 9 11 11 12 12 12 12 13 12 19 16 14 15 15 15 15
5 6 2 1 1 1 2 4 5 7 9 2 2 2 1 1 4 13 12 17 19 19 17 17 16 14 12 10 9 7 8 7 8 9 9 10 11 11 11 11 12 12 15 15 14 13 13 14 15
6 2 2 4 2 1 1 4 6 11 4 3 2 3 2 5 10 10 15 17 19 18 17 16 15 14 12 11 10 7 7 7 7 7 9 10 10 11 11 11 11 12 12 13 11 11 11 12 13
6 2 4 3 2 1 3 2 9 12 4 5 5 1 2 8 12 13 15 17 19 19 18 17 15 14 12 11 10 8 7 5 5 6 7 9 9 10 11 11 11 12 12 11 10 11 11 11 11
3 1 4 8 3 2 3 6 9 12 4 4 4 3 3 9 12 13 15 17 19 19 19 17 15 13 12 11 10 9 8 5 4 5 6 8 9 10 10 10 11 12 12 12 11 11 10 10 10
2 3 4 2 2 3 4 9 9 12 7 6 3 4 3 11 14 14 16 17 18 18 18 17 15 14 12 11 10 9 8 7 5 5 5 6 8 9 9 10 11 13 13 12 12 11 10 9 10
4 2 4 4 5 4 8 11 4 10 8 6 8 4 3 12 16 17 18 18 19 19 16 15 14 14 12 11 9 9 8 7 6 5 4 6 7 9 11 13 13 12 13 13 12 12 10 9 9
5 4 6 5 7 3 8 9 5 7 5 9 10 7 6 12 18 20 20 21 20 21 19 17 15 14 13 11 9 7 8 8 8 8 6 1 5 7 8 8 9 10 11 11 11 12 11 9 8
4 4 6 2 4 3 8 9 9 6 11 8 11 16 11 13 20 22 22 22 22 23 24 21 20 17 15 15 11 11 11 9 9 10 9 6 2 3 3 4 4 5 6 8 9 9 8 7 7
3 4 3 4 5 3 5 6 8 9 9 13 16 15 19 16 21 22 22 22 23 22 26 26 22 20 18 17 16 15 15 13 14 12 10 8 7 6 4 3 3 2 2 3 4 6 5 4 3
4 2 3 1 4 4 4 4 6 14 14 8 13 12 16 20 23 25 25 24 24 25 27 27 26 22 20 19 17 18 17 17 17 16 16 12 10 11 9 8 5 5 4 2 0 2 3 3 5
4 3 4 3 4 5 4 6 6 15 16 20 16 14 16 20 23 25 24 24 26 28 29 28 28 25 24 22 20 19 19 18 20 19 17 13 13 13 11 11 9 8 9 6 4 1 3 5 8
2 2 2 4 4 5 4 4 3 8 12 21 23 21 20 21 22 23 29 30 30 30 31 31 31 29 27 29 25 24 23 20 21 21 17 18 16 15 15 12 13 11 11 9 6 5 5 6 10
2 3 4 9 4 4 4 7 13 19 17 18 18 21 24 23 24 26 27 31 32 33 33 33 33 32 30 28 29 29 26 26 23 25 23 19 17 17 18 15 15 14 13 13 10 11 9 9 13
1 2 3 3 4 1 5 13 6 7 8 18 19 21 25 27 27 26 30 31 33 33 34 34 34 33 31 30 29 30 28 27 27 22 24 24 21 20 19 18 19 16 15 19 14 15 14 13 17
1 6 5 4 5 3 7 10 1 3 6 12 14 17 20 25 28 28 32 31 33 34 34 35 34 34 33 31 31 30 29 27 25 27 27 26 24 24 21 22 22 19 20 18 18 19 16 17 20
6 5 4 6 3 4 7 19 15 14 14 21 22 20 22 25 27 26 29 32 35 36 36 36 36 35 33 31 32 31 29 30 28 29 29 29 29 26 23 20 22 21 19 22 20 21 19 21 23
2 3 8 5 2 4 14 17 21 23 22 26 28 30 32 32 23 26 27 30 35 37 39 39 38 37 35 34 35 35 34 33 31 31 29 36 34 29 26 24 25 28 21 21 24 25 21 24 26
7 11 14 11 5 5 12 17 20 25 27 29 29 30 33 27 22 26 23 33 37 38 40 41 40 39 36 35 35 36 36 35 34 32 32 32 26 35 27 24 23 28 30 26 26 26 28 27 30
12 15 11 9 5 5 8 14 11 14 17 27 34 36 32 25 21 26 24 25 35 40 41 41 41 39 37 36 36 36 37 37 37 36 35 35 28 27 25 29 26 28 32 28 28 31 28 29 33
15 11 9 7 3 8 2 10 12 12 17 11 24 19 18 15 16 18 19 20 27 35 40 41 40 38 37 35 34 34 36 38 40 36 35 35 32 27 29 29 31 28 30 30 31 32 35 28 33
3 5 7 3 7 5 10 7 5 5 11 17 22 8 5 5 5 8 10 13 19 27 34 38 38 38 37 34 33 32 32 33 34 34 34 34 34 29 28 27 32 31 27 26 30 32 34 29 31
12 6 4 2 2 9 13 10 14 9 14 13 9 5 7 4 8 9 8 11 15 21 25 32 36 37 36 32 31 31 30 31 31 32 32 32 34 31 27 30 30 26 25 28 32 33 33 29 29
4 8 3 4 5 10 3 9 20 8 7 8 7 6 5 6 5 6 7 10 15 19 22 28 32 34 32 30 30 30 30 29 27 27 29 30 30 32 33 33 35 31 28 31 34 35 33 31 29
12 10 7 7 6 7 3 9 6 13 14 13 12 11 10 11 12 11 12 12 12 15 18 23 29 31 31 30 29 28 28 29 30 29 28 31 33 32 33 36 33 30 31 31 31 31 31 30 27
8 11 7 6 2 4 10 18 10 12 14 10 13 11 10 7 5 5 6 8 9 11 14 18 24 28 30 29 28 27 29 30 30 29 29 31 32 33 36 35 32 33 34 33 32 34 33 30 26
10 10 5 5 6 9 13 10 12 6 14 11 10 8 5 8 6 6 5 3 3 5 9 13 18 24 27 28 26 26 26 28 29 29 31 32 34 35 36 35 36 32 33 32 34 33 32 29 26
6 8 5 3 5 6 13 13 5 11 7 10 8 7 10 11 9 10 9 6 2 2 6 9 15 21 25 25 26 26 26 27 28 29 30 31 33 35 38 36 36 36 36 36 34 32 29 27 24
10 14 18 7 7 4 3 20 4 5 6 12 10 11 12 14 15 12 7 5 4 5 8 10 14 20 23 24 26 26 27 27 28 29 30 29 31 34 36 36 37 34 35 33 30 28 26 24 23
Wind_Direction
226 224 209 316 229 272 67 121 95 164 181 132 127 193 243 344 273 6 157 165 167 168 167 166 168 162 158 151 138 130 114 90 79 75 72 71 71 74 77 75 83 89 83 92 93 82 84 82 81
194 181 157 257 260 259 95 141 193 152 113 132 132 160 206 128 134 137 149 164 166 170 167 167 168 165 165 158 148 135 121 107 90 78 73 71 72 72 76 80 84 90 92 99 95 85 80 77 79
178 172 222 190 251 290 60 183 143 134 139 141 165 213 228 198 167 153 169 169 169 172 170 173 170 169 169 165 158 149 126 120 105 91 85 80 76 75 76 77 81 84 94 98 92 82 80 75 78
160 150 70 249 183 213 302 147 155 151 197 226 238 207 216 183 152 166 171 174 175 175 175 176 174 174 175 173 171 169 144 128 112 94 87 82 76 73 74 75 81 82 85 94 99 85 80 76 77
170 176 204 222 214 219 229 181 174 171 166 177 187 186 194 180 174 176 180 179 179 177 179 181 181 180 180 180 177 179 164 139 122 108 94 81 71 66 65 70 80 80 82 82 80 76 75 76 78
172 174 215 217 199 190 223 184 174 188 180 165 209 201 195 198 189 188 184 185 184 183 183 185 184 186 184 186 181 186 178 165 152 121 106 93 82 77 72 70 67 69 70 73 72 73 73 74 74
205 211 218 196 219 231 191 167 196 193 200 207 216 228 201 195 190 185 178 180 181 185 188 187 190 188 191 193 194 193 191 181 172 151 129 104 89 80 82 88 92 92 89 80 73 70 68 69 71
148 176 171 213 212 225 161 171 202 199 209 209 198 231 200 195 190 183 179 177 179 182 185 192 195 193 191 189 206 207 202 196 181 165 146 116 87 80 87 85 87 88 86 83 78 67 64 69 76
156 212 222 215 187 180 162 191 180 204 197 200 206 216 215 188 190 187 184 184 186 188 190 196 202 203 201 196 199 227 218 205 203 192 173 156 80 94 98 77 82 83 78 81 70 58 57 61 68
197 224 220 205 189 193 181 201 177 191 204 220 229 229 216 198 196 195 192 191 192 192 191 196 206 210 203 198 208 222 222 225 225 213 200 190 199 127 93 105 90 89 79 73 64 55 53 49 63
188 240 176 214 202 192 189 203 189 217 223 224 223 224 223 212 206 204 204 201 198 197 195 200 204 209 205 200 213 222 225 219 216 219 221 215 209 200 204 200 209 180 137 84 62 52 50 48 65
209 201 193 154 200 169 194 167 202 226 234 235 241 236 231 225 219 216 211 205 201 202 203 202 202 207 210 206 218 219 231 227 216 217 211 223 228 214 218 213 236 227 226 230 281 64 61 75 114
218 174 201 230 220 228 216 223 238 251 243 250 247 241 239 234 230 225 216 211 211 211 208 205 203 203 209 215 216 226 230 229 230 223 220 222 231 223 227 231 226 230 224 223 221 198 110 109 131
131 209 252 249 231 234 233 242 208 251 245 247 249 251 245 240 237 223 222 220 218 216 215 213 211 213 210 216 219 226 235 237 235 232 227 226 228 226 230 238 239 239 230 219 218 192 146 135 139
106 256 264 231 223 223 197 237 231 249 249 254 251 250 248 245 235 233 234 226 222 221 220 218 218 221 221 221 224 226 231 244 239 237 227 227 236 228 230 236 238 240 234 227 213 183 155 149 146
213 236 248 135 180 188 206 266 251 223 244 256 252 248 250 249 245 237 232 228 227 224 223 220 222 225 227 222 223 228 233 234 230 235 231 232 230 239 237 234 238 234 242 221 201 180 157 156 153
220 254 224 300 194 143 219 281 209 240 255 270 261 252 250 250 245 238 236 232 230 227 225 224 225 227 229 230 228 228 226 231 229 230 232 232 233 238 232 252 235 239 255 216 192 181 171 167 161
210 218 220 247 155 205 224 259 263 257 269 270 269 262 256 251 246 244 239 234 230 229 228 227 228 230 230 229 228 229 226 231 231 235 232 228 238 236 248 260 256 247 229 204 193 188 175 174 173
138 210 255 245 194 221 246 261 271 275 268 264 262 260 258 255 256 245 243 239 234 230 229 229 229 230 231 230 228 229 227 226 231 236 238 229 245 230 243 258 241 228 234 207 193 190 192 181 182
232 252 258 280 270 228 275 263 269 267 257 255 260 260 258 264 257 259 255 242 238 235 232 231 231 232 233 233 234 233 232 227 227 231 234 235 240 231 228 245 237 241 217 201 201 204 188 192 183
227 234 243 258 318 229 286 271 236 267 259 255 256 256 263 262 259 269 262 247 236 232 231 231 230 231 232 233 236 234 230 228 225 226 228 232 238 240 226 245 249 234 224 214 206 202 208 204 193
245 212 221 244 268 274 324 285 269 266 267 252 256 252 256 261 270 263 256 241 236 232 229 228 228 230 231 235 236 235 235 222 223 226 229 226 237 239 241 230 232 235 217 210 204 207 204 210 203
235 142 182 187 230 305 231 268 247 228 250 256 258 244 240 245 250 253 246 236 232 232 232 229 229 231 232 233 232 228 224 224 227 224 224 233 231 229 229 234 228 212 211 204 209 214 211 214 209
140 101 81 90 218 258 247 227 276 210 230 247 266 223 195 234 288 268 249 230 226 228 228 227 228 230 231 231 230 227 224 224 227 228 227 227 234 222 232 224 216 214 203 207 209 212 211 213 214
198 164 210 228 203 257 96 212 249 292 220 242 230 185 262 248 254 265 254 234 232 233 227 223 222 226 229 229 227 225 223 227 233 232 230 225 232 235 228 217 219 213 205 207 210 210 210 215 220
190 196 210 241 230 277 129 235 252 234 265 232 226 253 248 261 269 258 249 239 236 235 230 223 221 224 226 230 227 226 224 224 228 231 237 238 237 225 233 222 212 205 204 206 211 209 209 205 203
182 217 248 268 102 283 252 258 253 232 240 237 238 244 245 246 241 216 208 212 224 229 228 221 222 224 227 232 227 225 224 226 228 235 233 234 236 239 225 215 203 202 206 203 204 205 203 199 194
214 149 175 213 229 244 253 264 249 232 234 228 223 211 215 194 186 166 159 169 207 230 232 227 224 222 226 227 226 226 228 227 231 236 237 238 236 232 220 208 205 201 202 206 200 198 195 194 191
170 201 219 228 222 248 275 266 199 238 190 188 170 175 178 179 159 140 120 102 97 220 237 228 223 220 222 223 228 225 225 228 233 238 238 239 237 228 220 212 205 198 201 199 196 195 194 191 188
249 216 195 202 202 238 292 266 124 202 181 168 185 187 185 173 156 139 144 180 215 224 236 239 230 224 224 226 229 229 226 226 232 234 238 238 234 225 220 207 203 203 202 200 200 200 195 190 183